This is the latest recevied weather packets stored in our database for station/object GBTWP-2. If no packets are shown the sender has not sent any weather packets the latest 10 day(s).
| Time | Temp. | Humidity | Pressure | Rain* | Wind** | Luminosity | Snow |
|---|---|---|---|---|---|---|---|
| 1777077902 | 15.56° C | 97% | 1009.5 hPa | 0 mm | - | 0 W/m² | - |
| 1777077602 | 15.56° C | 97% | 1009.5 hPa | 0 mm | - | 0 W/m² | - |
| 1777077301 | 15.56° C | 97% | 1009.3 hPa | 0 mm | - | 0 W/m² | - |
| 1777076702 | 16.11° C | 97% | 1009.5 hPa | 0 mm | - | 1 W/m² | - |
| 1777076102 | 16.11° C | 97% | 1009.3 hPa | 0 mm | - | 2 W/m² | - |
| 1777075802 | 16.11° C | 97% | 1009 hPa | 1.78 mm | - | 4 W/m² | - |
| 1777074001 | 16.67° C | 97% | 1009.5 hPa | 1.78 mm | - | 8 W/m² | - |
| 1777073402 | 16.67° C | 97% | 1009.5 hPa | 1.78 mm | - | 14 W/m² | - |
| 1777073102 | 16.67° C | 97% | 1009.3 hPa | 0 mm | - | 14 W/m² | - |
| 1777072802 | 16.67° C | 97% | 1009.4 hPa | 1.78 mm | - | 18 W/m² | - |
| 1777072202 | 16.67° C | 96% | 1009.3 hPa | 7.11 mm | - | 9 W/m² | - |
| 1777071602 | 16.67° C | 96% | 1009.4 hPa | 10.67 mm | - | 4 W/m² | - |
| 1777071302 | 16.11° C | 96% | 1009.2 hPa | 16.76 mm | - | 4 W/m² | - |
| 1777071002 | 16.11° C | 96% | 1009.1 hPa | 47.24 mm | - | 4 W/m² | - |
| 1777070402 | 16.67° C | 95% | 1009.6 hPa | 10.67 mm | - | 1 W/m² | - |
| 1777070102 | 16.67° C | 95% | 1009.4 hPa | 13.72 mm | - | 2 W/m² | - |
| 1777069801 | 16.67° C | 95% | 1009.4 hPa | 17.78 mm | - | 2 W/m² | - |
| 1777069202 | 16.67° C | 95% | 1008.8 hPa | 21.59 mm | - | 3 W/m² | - |
| 1777068602 | 16.67° C | 94% | 1008.9 hPa | 7.62 mm | - | 5 W/m² | - |
| 1777068302 | 16.67° C | 94% | 1008.9 hPa | 11.94 mm | - | 5 W/m² | - |
| 1777068002 | 16.67° C | 94% | 1009.1 hPa | 13.21 mm | - | 6 W/m² | - |
| 1777067702 | 16.67° C | 94% | 1009.1 hPa | 5.84 mm | - | 9 W/m² | - |
| 1777066802 | 17.22° C | 93% | 1008.9 hPa | 2.79 mm | - | 16 W/m² | - |
| 1777066502 | 17.22° C | 93% | 1009.1 hPa | 1.02 mm | - | 17 W/m² | - |
| 1777066202 | 17.22° C | 93% | 1008.9 hPa | 1.02 mm | - | 16 W/m² | - |
* Rain latest hour (hover to see other rain measurements)
** Current wind speed in m/s (hover to see current wind gust speed)